Regional Weather Roundup
Issued by NWS New Orleans/Baton Rouge, LA

Current Version | Previous Version | Text Only | Print | Product List | Glossary On
Versions: 1 2 3 4 5 6 7 8 9 10 11 12 13 14 15 16 17 18 19 20 21 22 23 24 25 26 27 28 29 30 31 32 33 34 35 36 37 38 39 40 41 42 43 44 45 46 47 48 49 50
000
ASUS44 KLIX 251513
RWRLIX
NEW ORLEANS REGIONAL WEATHER ROUNDUP
NATIONAL WEATHER SERVICE NEW ORLEANS LA
1000 AM CDT TUE JUL 25 2017

NOTE: "FAIR" INDICATES FEW OR NO CLOUDS BELOW 12,000 FEET WITH NO
      SIGNIFICANT WEATHER AND/OR OBSTRUCTIONS TO VISIBILITY.
      SKY/WX - SKY CONDITION AND SIGNIFICANT WEATHER.
      TMP - AIR TEMPERATURE.     DP    - DEWPOINT TEMPERATURE.
      RH  - RELATIVE HUMIDITY.   PRES  - PRESSURE.
      HI  - HEAT INDEX.          WCI   - WIND CHILL INDEX.

*  THESE STATIONS ARE NOT NWS OR FAA STATIONS AND ARE NOT UNDER
   NWS QUALITY CONTROL.

LAZ038-040-048-061>063-065>067-069-251600-
SOUTHEAST LOUISIANA

CITY           SKY/WX    TMP DP  RH WIND       PRES   REMARKS
N.O. INTL ARPT PTSUNNY   85  76  74 VRB7      30.15R
N.O. LAKEFRONT SUNNY     86  77  74 W12       30.15S HX  97
N.O. DOWNTOWN*   N/A     85  75  72 VRB5        N/A
RESERVE*         N/A     87  77  71 W8        30.15S HX  99
SLIDELL        PTSUNNY   85  77  77 SW8       30.14S HX  95
BATON ROUGE    CLOUDY    81  77  88 W5        30.15R
BOOTHVILLE     NOT AVBL
BELLE CHASSE   NOT AVBL
BOGALUSA*      CLOUDY    81  76  83 E3        30.16S THUNDER
GALLIANO*      MOSUNNY   84  74  71 SW6       30.16R
NEW ROADS*       N/A     80  77  89 CALM      30.15R
GONZALES*        N/A     83  77  81 CALM      30.14S
HAMMOND*       CLOUDY    81  73  78 SW3       30.14F
HOUMA*         MOSUNNY   84  77  79 SW6       30.15R
PORT FOURCHON* SUNNY     86  75  70 SW9       30.16R HX  95

$$

MSZ070-080>082-251600-
SOUTHERN MISSISSIPPI

CITY           SKY/WX    TMP DP  RH WIND       PRES   REMARKS
MCCOMB         HVY RAIN  71  68  90 N18       30.19R VSB 1/2
GULFPORT       PTSUNNY   84  79  85 W8        30.13S HX  96
BILOXI         MOSUNNY   86  80  81 CALM      30.13S HX 100
PASCAGOULA     MOSUNNY   86  77  74 W8        30.12F HX  97
STENNIS ARPT*  PTSUNNY   84  79  84 W6        30.14S FOG     HX  96

$$

COASTAL OBSERVATIONS
LAKE AND NEARSHORE STATIONS

STATION/POSITION TIME  TEMP    WIND        PRES    WAVE
                       AIR SEA DIR/SP/G            HT/PER
                 (UTC) (F)     (DEG/KT/KT) (MB)    (FT/S)
PASCAGOULA       1448   85     280/ 10/ 16 1019.9
WAVELAND YACHT   1448   83 85  260/  8/ 12 1020.5
GRAND ISLE       1448   84 84  280/  7/  9 1021.4
SOUTHWEST PASS   1448   85     260/  7/  9   N/A
NEW CANAL        1442   85 84  260/  7/ 11 1020.6
SHELL BEACH      1448   83 87  260/  8/ 12 1021.0

OFFSHORE STATIONS

STATION/POSITION TIME  TEMP    WIND        PRES    WAVE
                       AIR SEA DIR/SP/G            HT/PER
                 (UTC) (F)     (DEG/KT/KT) (MB)    (FT/S)
64 S DAUPHIN ISL 1450   84 85  260/ 12/ 14 1020.9    2/ 3

$$




USA.gov is the U.S. government's official web portal to all federal, state and local government web resources and services.